User: anonymous   Login
Location: *
(46.3500°N, 10.9000°E)
Time: 16:32:38
(UTC+00:00)
Language:

Tiros 1 despin weight - Orbit

View from above orbital plane
View from above orbital plane
View from above satellite
View from above satellite

Ground track
Ground track

The orbit data is extracted from the following two-line orbital elements,

1 00115U 60002D   21100.85688226  .00000097  00000-0  38609-4 0  9990
2 00115  48.1662 283.9880 0034109 120.2049 240.2249 14.83739512235971
Epoch (UTC): 10 April 2021 20:33:54
Eccentricity: 0.0034109
inclination: 48.1662°
perigee height: 593 km
apogee height: 641 km
right ascension of ascending node: 283.9880°
argument of perigee: 120.2049°
revolutions per day: 14.83739512
mean anomaly at epoch: 240.2249°
orbit number at epoch: 23597

The dashed part of the orbit path shows where the satellite is in the earth's shadow,  

DLR